Time,TemperatureF,DewpointF,PressureIn,WindDirection,WindDirectionDegrees,WindSpeedMPH,WindSpeedGustMPH,Humidity,HourlyPrecipIn,Conditions,Clouds,dailyrainin,SoftwareType,DateUTC
2013-02-06 00:00:00,20.6,13.9,29.98,WNW,296,0.0,0.0,75,0.00,,,0.00,Wunderground v.1.15,2013-02-06 05:00:00,
2013-02-06 00:05:00,20.3,13.9,29.99,WNW,296,0.0,0.0,76,0.00,,,0.00,Wunderground v.1.15,2013-02-06 05:05:00,
2013-02-06 00:10:00,19.9,13.9,29.99,WNW,296,0.0,0.0,77,0.00,,,0.00,Wunderground v.1.15,2013-02-06 05:10:00,
2013-02-06 00:15:00,19.5,13.5,29.99,WNW,296,0.0,0.0,77,0.00,,,0.00,Wunderground v.1.15,2013-02-06 05:15:00,
2013-02-06 00:20:00,19.1,13.7,30.00,WNW,296,0.0,0.0,79,0.00,,,0.00,Wunderground v.1.15,2013-02-06 05:20:00,
2013-02-06 00:25:00,19.0,13.8,30.00,WNW,296,0.0,0.0,80,0.00,,,0.00,Wunderground v.1.15,2013-02-06 05:25:00,
2013-02-06 00:30:00,19.0,14.1,30.01,WNW,296,0.0,0.0,81,0.00,,,0.00,Wunderground v.1.15,2013-02-06 05:30:00,
2013-02-06 00:35:00,18.9,14.0,30.01,WNW,296,0.0,0.0,81,0.00,,,0.00,Wunderground v.1.15,2013-02-06 05:35:00,
2013-02-06 00:40:00,19.0,14.4,30.01,WNW,296,0.0,0.0,82,0.00,,,0.00,Wunderground v.1.15,2013-02-06 05:40:00,
2013-02-06 00:50:00,19.3,14.7,30.01,WNW,296,0.0,1.0,82,0.00,,,0.00,Wunderground v.1.15,2013-02-06 05:50:00,
2013-02-06 00:55:00,19.8,14.9,30.02,WNW,296,1.0,1.0,81,0.00,,,0.00,Wunderground v.1.15,2013-02-06 05:55:00,
2013-02-06 01:01:00,20.1,14.9,30.01,WNW,296,1.0,1.0,80,0.00,,,0.00,Wunderground v.1.15,2013-02-06 06:01:00,
2013-02-06 01:10:00,20.5,15.3,30.02,WNW,296,1.0,2.0,80,0.00,,,0.00,Wunderground v.1.15,2013-02-06 06:10:00,
2013-02-06 01:15:00,20.8,15.3,30.02,WNW,296,2.0,2.0,79,0.00,,,0.00,Wunderground v.1.15,2013-02-06 06:15:00,
2013-02-06 01:20:00,21.1,15.3,30.03,West,268,2.0,3.0,78,0.00,,,0.00,Wunderground v.1.15,2013-02-06 06:20:00,
2013-02-06 01:30:00,21.7,15.6,30.03,West,267,3.0,3.0,77,0.00,,,0.00,Wunderground v.1.15,2013-02-06 06:30:00,
2013-02-06 01:35:00,21.9,15.8,30.03,West,264,3.0,3.0,77,0.00,,,0.00,Wunderground v.1.15,2013-02-06 06:35:00,
2013-02-06 01:45:00,22.2,16.1,30.04,West,272,4.0,4.0,77,0.00,,,0.00,Wunderground v.1.15,2013-02-06 06:45:00,
2013-02-06 01:55:00,22.3,16.2,30.04,West,279,4.0,4.0,77,0.00,,,0.00,Wunderground v.1.15,2013-02-06 06:55:00,
2013-02-06 02:00:00,22.3,16.2,30.04,WNW,284,4.0,4.0,77,0.00,,,0.00,Wunderground v.1.15,2013-02-06 07:00:00,
2013-02-06 02:10:00,22.2,16.1,30.05,WNW,288,3.0,3.0,77,0.00,,,0.00,Wunderground v.1.15,2013-02-06 07:10:00,
2013-02-06 02:15:00,22.1,16.0,30.05,West,263,3.0,4.0,77,0.00,,,0.00,Wunderground v.1.15,2013-02-06 07:15:00,
2013-02-06 02:20:00,22.0,15.9,30.05,WNW,283,4.0,4.0,77,0.00,,,0.00,Wunderground v.1.15,2013-02-06 07:20:00,
2013-02-06 02:25:00,21.8,15.7,30.05,West,279,3.0,4.0,77,0.00,,,0.00,Wunderground v.1.15,2013-02-06 07:25:00,
2013-02-06 02:35:00,21.1,15.3,30.06,West,279,2.0,2.0,78,0.00,,,0.00,Wunderground v.1.15,2013-02-06 07:35:00,
2013-02-06 02:40:00,20.7,14.9,30.06,West,279,2.0,2.0,78,0.00,,,0.00,Wunderground v.1.15,2013-02-06 07:40:00,
2013-02-06 07:40:00,7.7,5.4,30.20,West,279,0.0,2.0,90,0.00,,,0.00,Wunderground v.1.15,2013-02-06 12:40:00,
2013-02-06 07:45:00,7.6,5.0,30.20,West,279,0.0,2.0,89,0.00,,,0.00,Wunderground v.1.15,2013-02-06 12:45:00,
2013-02-06 07:50:00,7.5,5.2,30.20,West,279,0.0,0.0,90,0.00,,,0.00,Wunderground v.1.15,2013-02-06 12:50:00,
2013-02-06 08:00:00,7.3,5.0,30.21,West,279,0.0,0.0,90,0.00,,,0.00,Wunderground v.1.15,2013-02-06 13:00:00,
2013-02-06 08:10:00,7.3,5.0,30.22,West,279,0.0,0.0,90,0.00,,,0.00,Wunderground v.1.15,2013-02-06 13:10:00,
2013-02-06 08:15:00,7.3,5.0,30.22,West,279,0.0,0.0,90,0.00,,,0.00,Wunderground v.1.15,2013-02-06 13:15:00,
2013-02-06 08:20:00,7.3,5.0,30.22,West,279,0.0,0.0,90,0.00,,,0.00,Wunderground v.1.15,2013-02-06 13:20:00,
2013-02-06 08:25:00,7.4,5.1,30.22,West,279,0.0,0.0,90,0.00,,,0.00,Wunderground v.1.15,2013-02-06 13:25:00,
2013-02-06 08:35:00,8.1,6.0,30.22,West,279,0.0,0.0,91,0.00,,,0.00,Wunderground v.1.15,2013-02-06 13:35:00,
2013-02-06 08:40:00,8.7,6.6,30.22,West,279,0.0,0.0,91,0.00,,,0.00,Wunderground v.1.15,2013-02-06 13:40:00,
2013-02-06 08:45:00,9.4,7.3,30.22,West,279,0.0,0.0,91,0.00,,,0.00,Wunderground v.1.15,2013-02-06 13:45:00,
2013-02-06 08:50:00,10.4,8.5,30.23,West,279,0.0,0.0,92,0.00,,,0.00,Wunderground v.1.15,2013-02-06 13:50:00,
2013-02-06 08:55:00,11.3,9.4,30.23,West,279,0.0,0.0,92,0.00,,,0.00,Wunderground v.1.15,2013-02-06 13:55:00,
2013-02-06 09:00:00,12.3,10.4,30.23,West,279,0.0,0.0,92,0.00,,,0.00,Wunderground v.1.15,2013-02-06 14:00:00,
2013-02-06 09:10:00,14.6,12.9,30.23,West,279,0.0,0.0,93,0.00,,,0.00,Wunderground v.1.15,2013-02-06 14:10:00,
2013-02-06 09:20:00,17.4,15.5,30.23,West,279,0.0,0.0,92,0.00,,,0.00,Wunderground v.1.15,2013-02-06 14:20:00,
2013-02-06 09:30:00,19.1,16.4,30.24,West,279,0.0,0.0,89,0.00,,,0.00,Wunderground v.1.15,2013-02-06 14:30:00,
2013-02-06 09:40:00,20.7,17.4,30.24,West,279,0.0,0.0,87,0.00,,,0.00,Wunderground v.1.15,2013-02-06 14:40:00,
2013-02-06 09:45:00,21.1,17.6,30.25,West,279,0.0,0.0,86,0.00,,,0.00,Wunderground v.1.15,2013-02-06 14:45:00,
2013-02-06 09:55:00,21.9,17.2,30.24,West,279,0.0,0.0,82,0.00,,,0.00,Wunderground v.1.15,2013-02-06 14:55:00,
2013-02-06 10:00:00,22.3,17.1,30.24,West,279,0.0,0.0,80,0.00,,,0.00,Wunderground v.1.15,2013-02-06 15:00:00,
2013-02-06 10:10:00,23.1,17.3,30.24,West,279,0.0,0.0,78,0.00,,,0.00,Wunderground v.1.15,2013-02-06 15:10:00,
2013-02-06 10:15:00,23.6,17.1,30.24,West,279,0.0,0.0,76,0.00,,,0.00,Wunderground v.1.15,2013-02-06 15:15:00,
2013-02-06 10:20:00,24.1,17.6,30.24,West,279,0.0,0.0,76,0.00,,,0.00,Wunderground v.1.15,2013-02-06 15:20:00,
2013-02-06 10:25:00,24.0,16.6,30.25,West,279,0.0,0.0,73,0.00,,,0.00,Wunderground v.1.15,2013-02-06 15:25:00,
2013-02-06 10:30:00,24.1,16.4,30.25,West,279,0.0,0.0,72,0.00,,,0.01,Wunderground v.1.15,2013-02-06 15:30:00,
2013-02-06 10:40:00,25.4,16.3,30.25,SE,139,1.0,2.0,68,0.00,,,0.01,Wunderground v.1.15,2013-02-06 15:40:00,
2013-02-06 10:45:00,25.4,16.6,30.25,ESE,121,1.0,2.0,69,0.00,,,0.01,Wunderground v.1.15,2013-02-06 15:45:00,
2013-02-06 10:55:00,25.5,15.0,30.26,SE,126,1.0,1.0,64,0.00,,,0.01,Wunderground v.1.15,2013-02-06 15:55:00,
2013-02-06 11:00:00,25.5,15.7,30.26,SSW,194,1.0,1.0,66,0.00,,,0.01,Wunderground v.1.15,2013-02-06 16:00:00,
2013-02-06 11:10:00,26.1,15.9,30.26,South,173,1.0,2.0,65,0.00,,,0.01,Wunderground v.1.15,2013-02-06 16:10:00,
2013-02-06 11:15:00,26.6,15.7,30.26,SW,225,1.0,2.0,63,0.00,,,0.01,Wunderground v.1.15,2013-02-06 16:15:00,
2013-02-06 11:25:00,26.7,15.8,30.27,SE,126,1.0,2.0,63,0.00,,,0.01,Wunderground v.1.15,2013-02-06 16:25:00,
2013-02-06 11:35:00,26.4,15.5,30.26,WSW,257,2.0,3.0,63,0.00,,,0.01,Wunderground v.1.15,2013-02-06 16:35:00,
2013-02-06 11:40:00,26.3,15.4,30.27,WSW,257,2.0,4.0,63,0.00,,,0.01,Wunderground v.1.15,2013-02-06 16:40:00,
2013-02-06 11:45:00,26.0,15.5,30.27,SW,230,3.0,4.0,64,0.00,,,0.01,Wunderground v.1.15,2013-02-06 16:45:00,
2013-02-06 11:50:00,26.1,15.2,30.27,SE,132,3.0,3.0,63,0.00,,,0.01,Wunderground v.1.15,2013-02-06 16:50:00,
2013-02-06 12:00:00,26.2,15.3,30.27,SSW,200,2.0,2.0,63,0.00,,,0.01,Wunderground v.1.15,2013-02-06 17:00:00,
2013-02-06 12:10:00,26.4,15.9,30.27,WSW,255,2.0,2.0,64,0.00,,,0.01,Wunderground v.1.15,2013-02-06 17:10:00,
2013-02-06 12:15:00,26.9,16.3,30.27,West,265,2.0,2.0,64,0.00,,,0.01,Wunderground v.1.15,2013-02-06 17:15:00,
2013-02-06 12:20:00,27.0,15.7,30.27,West,279,2.0,4.0,62,0.00,,,0.01,Wunderground v.1.15,2013-02-06 17:20:00,
2013-02-06 12:30:00,26.7,16.5,30.28,West,268,4.0,4.0,65,0.00,,,0.01,Wunderground v.1.15,2013-02-06 17:30:00,
2013-02-06 12:40:00,26.3,15.8,30.27,West,268,4.0,4.0,64,0.00,,,0.01,Wunderground v.1.15,2013-02-06 17:40:00,
2013-02-06 12:45:00,26.3,16.1,30.27,WNW,286,3.0,4.0,65,0.00,,,0.01,Wunderground v.1.15,2013-02-06 17:45:00,
2013-02-06 12:50:00,26.9,16.7,30.27,WSW,249,2.0,2.0,65,0.00,,,0.01,Wunderground v.1.15,2013-02-06 17:50:00,
2013-02-06 13:00:00,28.2,17.2,30.27,West,273,1.0,4.0,63,0.00,,,0.01,Wunderground v.1.15,2013-02-06 18:00:00,
2013-02-06 13:10:00,28.1,17.1,30.27,WSW,254,4.0,4.0,63,0.00,,,0.01,Wunderground v.1.15,2013-02-06 18:10:00,
2013-02-06 13:15:00,27.6,17.0,30.26,WSW,252,5.0,5.0,64,0.00,,,0.01,Wunderground v.1.15,2013-02-06 18:15:00,
2013-02-06 13:25:00,28.3,17.7,30.26,SW,229,4.0,5.0,64,0.00,,,0.01,Wunderground v.1.15,2013-02-06 18:25:00,
2013-02-06 13:35:00,28.0,18.1,30.26,WNW,283,4.0,5.0,66,0.00,,,0.01,Wunderground v.1.15,2013-02-06 18:35:00,
2013-02-06 13:40:00,28.1,18.2,30.25,West,267,5.0,8.0,66,0.00,,,0.01,Wunderground v.1.15,2013-02-06 18:40:00,
2013-02-06 13:45:00,28.3,18.7,30.25,West,261,5.0,8.0,67,0.00,,,0.01,Wunderground v.1.15,2013-02-06 18:45:00,
2013-02-06 13:55:00,28.4,18.8,30.24,WSW,245,5.0,7.0,67,0.00,,,0.01,Wunderground v.1.15,2013-02-06 18:55:00,
2013-02-06 14:00:00,28.5,18.6,30.25,WSW,254,5.0,7.0,66,0.00,,,0.01,Wunderground v.1.15,2013-02-06 19:00:00,
2013-02-06 14:10:00,28.8,18.9,30.24,WSW,255,5.0,5.0,66,0.00,,,0.01,Wunderground v.1.15,2013-02-06 19:10:00,
2013-02-06 14:20:00,29.2,19.2,30.24,SW,225,5.0,5.0,66,0.00,,,0.02,Wunderground v.1.15,2013-02-06 19:20:00,
2013-02-06 14:25:00,28.8,18.5,30.24,WSW,257,5.0,6.0,65,0.00,,,0.02,Wunderground v.1.15,2013-02-06 19:25:00,
2013-02-06 14:30:00,28.8,18.5,30.24,West,262,6.0,9.0,65,0.00,,,0.02,Wunderground v.1.15,2013-02-06 19:30:00,
2013-02-06 14:40:00,29.3,19.3,30.24,West,268,6.0,6.0,66,0.00,,,0.02,Wunderground v.1.15,2013-02-06 19:40:00,
2013-02-06 14:45:00,29.4,19.1,30.24,West,265,5.0,7.0,65,0.00,,,0.02,Wunderground v.1.15,2013-02-06 19:45:00,
2013-02-06 14:50:00,29.5,19.2,30.24,WSW,242,5.0,7.0,65,0.00,,,0.02,Wunderground v.1.15,2013-02-06 19:50:00,
2013-02-06 14:55:00,29.6,19.3,30.24,WSW,238,5.0,7.0,65,0.00,,,0.02,Wunderground v.1.15,2013-02-06 19:55:00,
2013-02-06 15:00:00,29.5,19.2,30.23,WSW,257,5.0,5.0,65,0.00,,,0.02,Wunderground v.1.15,2013-02-06 20:00:00,
2013-02-06 15:55:00,29.8,20.2,30.22,WSW,240,5.0,5.0,67,0.00,,,0.02,Wunderground v.1.15,2013-02-06 20:55:00,
2013-02-06 16:00:00,30.0,20.4,30.22,WSW,252,4.0,4.0,67,0.00,,,0.02,Wunderground v.1.15,2013-02-06 21:00:00,
2013-02-06 16:05:00,30.2,20.6,30.23,West,267,3.0,5.0,67,0.00,,,0.02,Wunderground v.1.15,2013-02-06 21:05:00,
2013-02-06 16:15:00,29.7,20.1,30.23,West,271,5.0,5.0,67,0.00,,,0.02,Wunderground v.1.15,2013-02-06 21:15:00,
2013-02-06 16:25:00,29.9,20.3,30.24,WSW,243,4.0,5.0,67,0.00,,,0.02,Wunderground v.1.15,2013-02-06 21:25:00,
2013-02-06 16:30:00,29.9,20.3,30.24,West,269,4.0,4.0,67,0.00,,,0.02,Wunderground v.1.15,2013-02-06 21:30:00,
2013-02-06 16:35:00,29.9,20.3,30.24,West,269,4.0,4.0,67,0.00,,,0.02,Wunderground v.1.15,2013-02-06 21:35:00,
2013-02-06 16:40:00,29.9,20.6,30.24,West,279,4.0,4.0,68,0.00,,,0.02,Wunderground v.1.15,2013-02-06 21:40:00,
2013-02-06 16:45:00,29.9,20.3,30.24,West,269,3.0,4.0,67,0.00,,,0.02,Wunderground v.1.15,2013-02-06 21:45:00,
2013-02-06 16:50:00,29.7,20.4,30.24,WNW,284,3.0,3.0,68,0.00,,,0.02,Wunderground v.1.15,2013-02-06 21:50:00,
2013-02-06 16:55:00,29.6,20.3,30.25,West,271,3.0,4.0,68,0.00,,,0.02,Wunderground v.1.15,2013-02-06 21:55:00,
2013-02-06 17:05:00,29.6,20.3,30.25,West,273,3.0,4.0,68,0.00,,,0.02,Wunderground v.1.15,2013-02-06 22:05:00,
2013-02-06 17:10:00,29.4,20.1,30.25,WSW,253,3.0,4.0,68,0.00,,,0.02,Wunderground v.1.15,2013-02-06 22:10:00,
2013-02-06 17:15:00,29.3,20.0,30.25,WNW,287,3.0,3.0,68,0.00,,,0.02,Wunderground v.1.15,2013-02-06 22:15:00,
2013-02-06 17:20:00,29.2,20.3,30.26,West,269,3.0,3.0,69,0.00,,,0.02,Wunderground v.1.15,2013-02-06 22:20:00,
2013-02-06 17:25:00,29.1,20.2,30.26,West,271,3.0,3.0,69,0.00,,,0.02,Wunderground v.1.15,2013-02-06 22:25:00,
2013-02-06 17:35:00,28.7,20.1,30.26,West,271,1.0,1.0,70,0.00,,,0.02,Wunderground v.1.15,2013-02-06 22:35:00,
2013-02-06 17:40:00,28.5,20.0,30.26,West,271,0.0,1.0,70,0.00,,,0.02,Wunderground v.1.15,2013-02-06 22:40:00,
2013-02-06 17:50:00,28.1,19.9,30.26,West,271,0.0,0.0,71,0.00,,,0.02,Wunderground v.1.15,2013-02-06 22:50:00,
2013-02-06 17:55:00,27.8,19.9,30.26,West,271,0.0,0.0,72,0.00,,,0.02,Wunderground v.1.15,2013-02-06 22:55:00,
2013-02-06 18:05:00,27.2,20.3,30.26,West,271,0.0,0.0,75,0.00,,,0.02,Wunderground v.1.15,2013-02-06 23:05:00,
2013-02-06 18:15:00,26.5,19.6,30.26,West,271,0.0,0.0,75,0.00,,,0.02,Wunderground v.1.15,2013-02-06 23:15:00,
2013-02-06 18:20:00,26.1,19.3,30.26,West,271,0.0,0.0,75,0.00,,,0.02,Wunderground v.1.15,2013-02-06 23:20:00,
2013-02-06 18:30:00,25.7,19.2,30.26,West,271,0.0,0.0,76,0.00,,,0.02,Wunderground v.1.15,2013-02-06 23:30:00,
2013-02-06 18:35:00,25.5,19.3,30.26,West,271,0.0,0.0,77,0.00,,,0.02,Wunderground v.1.15,2013-02-06 23:35:00,
2013-02-06 18:40:00,25.4,19.8,30.26,West,271,0.0,0.0,79,0.00,,,0.02,Wunderground v.1.15,2013-02-06 23:40:00,
2013-02-06 18:45:00,25.2,19.6,30.26,West,271,0.0,0.0,79,0.00,,,0.02,Wunderground v.1.15,2013-02-06 23:45:00,
2013-02-06 18:55:00,25.1,19.5,30.26,West,271,0.0,0.0,79,0.00,,,0.02,Wunderground v.1.15,2013-02-06 23:55:00,
2013-02-06 19:05:00,24.7,19.7,30.25,West,271,0.0,0.0,81,0.00,,,0.02,Wunderground v.1.15,2013-02-07 00:05:00,
2013-02-06 19:10:00,24.7,19.7,30.25,West,271,0.0,0.0,81,0.00,,,0.02,Wunderground v.1.15,2013-02-07 00:10:00,
2013-02-06 19:15:00,24.8,19.8,30.25,West,271,0.0,0.0,81,0.00,,,0.02,Wunderground v.1.15,2013-02-07 00:15:00,
2013-02-06 19:25:00,25.3,20.6,30.25,SSW,202,0.0,1.0,82,0.00,,,0.02,Wunderground v.1.15,2013-02-07 00:25:00,
2013-02-06 19:35:00,25.7,20.4,30.25,ESE,116,1.0,2.0,80,0.00,,,0.02,Wunderground v.1.15,2013-02-07 00:35:00,
2013-02-06 19:40:00,25.9,20.0,30.26,ESE,116,1.0,2.0,78,0.00,,,0.02,Wunderground v.1.15,2013-02-07 00:40:00,
2013-02-06 19:45:00,26.0,20.1,30.26,East,84,1.0,1.0,78,0.00,,,0.02,Wunderground v.1.15,2013-02-07 00:45:00,
2013-02-06 19:50:00,26.0,19.8,30.25,East,84,1.0,1.0,77,0.00,,,0.02,Wunderground v.1.15,2013-02-07 00:50:00,
2013-02-06 20:05:00,25.6,19.7,30.26,East,84,0.0,0.0,78,0.00,,,0.02,Wunderground v.1.15,2013-02-07 01:05:00,
2013-02-06 20:10:00,25.5,19.9,30.26,East,84,0.0,0.0,79,0.00,,,0.02,Wunderground v.1.15,2013-02-07 01:10:00,
2013-02-06 20:15:00,25.4,19.8,30.26,East,84,0.0,0.0,79,0.00,,,0.02,Wunderground v.1.15,2013-02-07 01:15:00,
2013-02-06 20:20:00,25.4,19.8,30.25,East,84,0.0,0.0,79,0.00,,,0.02,Wunderground v.1.15,2013-02-07 01:20:00,
2013-02-06 20:25:00,25.4,20.1,30.25,East,84,0.0,0.0,80,0.00,,,0.02,Wunderground v.1.15,2013-02-07 01:25:00,
2013-02-06 20:30:00,25.4,20.1,30.24,East,84,0.0,0.0,80,0.00,,,0.02,Wunderground v.1.15,2013-02-07 01:30:00,
2013-02-06 20:40:00,25.6,20.3,30.24,East,84,0.0,1.0,80,0.00,,,0.02,Wunderground v.1.15,2013-02-07 01:40:00,
2013-02-06 20:45:00,25.8,20.2,30.24,East,84,0.0,0.0,79,0.00,,,0.02,Wunderground v.1.15,2013-02-07 01:45:00,
2013-02-06 20:55:00,26.0,20.4,30.24,East,84,0.0,0.0,79,0.00,,,0.02,Wunderground v.1.15,2013-02-07 01:55:00,
2013-02-06 21:00:00,26.1,20.2,30.24,East,84,0.0,0.0,78,0.00,,,0.02,Wunderground v.1.15,2013-02-07 02:00:00,
2013-02-06 21:10:00,26.2,20.6,30.24,East,84,0.0,0.0,79,0.00,,,0.02,Wunderground v.1.15,2013-02-07 02:10:00,
2013-02-06 21:20:00,26.2,20.3,30.24,East,84,0.0,0.0,78,0.00,,,0.02,Wunderground v.1.15,2013-02-07 02:20:00,
2013-02-06 21:25:00,26.3,20.7,30.24,East,84,0.0,0.0,79,0.00,,,0.02,Wunderground v.1.15,2013-02-07 02:25:00,
2013-02-06 21:30:00,26.4,20.5,30.24,East,84,0.0,0.0,78,0.00,,,0.02,Wunderground v.1.15,2013-02-07 02:30:00,
2013-02-06 21:40:00,26.6,20.4,30.24,East,84,1.0,3.0,77,0.00,,,0.02,Wunderground v.1.15,2013-02-07 02:40:00,
2013-02-06 21:45:00,26.8,20.6,30.24,East,84,1.0,3.0,77,0.00,,,0.02,Wunderground v.1.15,2013-02-07 02:45:00,
2013-02-06 21:50:00,26.9,20.7,30.24,ESE,111,1.0,2.0,77,0.00,,,0.02,Wunderground v.1.15,2013-02-07 02:50:00,
2013-02-06 22:00:00,27.0,20.4,30.24,ESE,109,1.0,1.0,76,0.00,,,0.02,Wunderground v.1.15,2013-02-07 03:00:00,
2013-02-06 22:10:00,27.2,20.6,30.24,SE,126,1.0,1.0,76,0.00,,,0.02,Wunderground v.1.15,2013-02-07 03:10:00,
2013-02-06 22:20:00,27.3,20.7,30.24,SE,126,1.0,1.0,76,0.00,,,0.02,Wunderground v.1.15,2013-02-07 03:20:00,
2013-02-06 22:30:00,27.3,20.7,30.24,SE,126,0.0,0.0,76,0.00,,,0.02,Wunderground v.1.15,2013-02-07 03:30:00,
2013-02-06 22:40:00,27.4,20.8,30.25,SE,129,0.0,0.0,76,0.00,,,0.02,Wunderground v.1.15,2013-02-07 03:40:00,
2013-02-06 22:45:00,27.4,20.8,30.25,SE,129,0.0,0.0,76,0.00,,,0.02,Wunderground v.1.15,2013-02-07 03:45:00,
2013-02-06 22:50:00,27.4,20.8,30.25,SE,128,0.0,1.0,76,0.00,,,0.02,Wunderground v.1.15,2013-02-07 03:50:00,
2013-02-06 22:55:00,27.3,21.0,30.24,SE,128,0.0,1.0,77,0.00,,,0.02,Wunderground v.1.15,2013-02-07 03:55:00,
2013-02-06 23:00:00,27.3,20.7,30.24,SE,129,0.0,0.0,76,0.00,,,0.02,Wunderground v.1.15,2013-02-07 04:00:00,
2013-02-06 23:10:00,27.3,20.7,30.24,SE,126,0.0,0.0,76,0.00,,,0.02,Wunderground v.1.15,2013-02-07 04:10:00,
2013-02-06 23:15:00,27.4,20.8,30.24,ESE,115,1.0,3.0,76,0.00,,,0.02,Wunderground v.1.15,2013-02-07 04:15:00,
2013-02-06 23:25:00,27.3,20.7,30.24,ESE,117,1.0,1.0,76,0.00,,,0.02,Wunderground v.1.15,2013-02-07 04:25:00,
2013-02-06 23:35:00,27.3,20.7,30.24,ESE,117,1.0,1.0,76,0.00,,,0.02,Wunderground v.1.15,2013-02-07 04:35:00,
2013-02-06 23:40:00,27.3,20.7,30.24,SE,146,1.0,1.0,76,0.00,,,0.02,Wunderground v.1.15,2013-02-07 04:40:00,
2013-02-06 23:45:00,27.3,20.7,30.24,ESE,111,1.0,2.0,76,0.00,,,0.02,Wunderground v.1.15,2013-02-07 04:45:00,
2013-02-06 23:50:00,27.3,20.7,30.25,ESE,111,1.0,1.0,76,0.00,,,0.02,Wunderground v.1.15,2013-02-07 04:50:00,
2013-02-06 23:55:00,27.2,20.9,30.24,ESE,111,0.0,1.0,77,0.00,,,0.02,Wunderground v.1.15,2013-02-07 04:55:00,